TimeCST,TemperatureF,Dew PointF,Humidity,Sea Level PressureIn,VisibilityMPH,Wind Direction,Wind SpeedMPH,Gust SpeedMPH,PrecipitationIn,Events,Conditions,WindDirDegrees,DateUTC
12:53 AM,44.1,37.0,76,30.16,7.0,SSE,4.6,-,N/A,,Mostly Cloudy,150,2012-11-20 06:53:00
2:53 AM,48.0,39.9,74,30.14,6.0,South,5.8,-,N/A,,Haze,180,2012-11-20 08:53:00
3:53 AM,48.9,39.9,71,30.13,6.0,South,5.8,-,N/A,,Haze,180,2012-11-20 09:53:00
4:53 AM,48.9,39.0,69,30.12,6.0,South,6.9,-,N/A,,Haze,180,2012-11-20 10:53:00
6:53 AM,46.9,39.0,74,30.12,5.0,Calm,Calm,-,N/A,,Haze,0,2012-11-20 12:53:00
7:53 AM,50.0,39.9,68,30.13,5.0,Calm,Calm,-,N/A,,Haze,0,2012-11-20 13:53:00
8:53 AM,55.9,39.9,55,30.13,7.0,SW,5.8,-,N/A,,Clear,220,2012-11-20 14:53:00
9:53 AM,59.0,41.0,51,30.13,4.0,WNW,4.6,-,N/A,,Haze,300,2012-11-20 15:53:00
10:53 AM,59.0,42.1,53,30.13,6.0,Calm,Calm,-,N/A,,Haze,0,2012-11-20 16:53:00
11:53 AM,60.1,43.0,53,30.10,5.0,NW,3.5,-,N/A,,Haze,310,2012-11-20 17:53:00
12:53 PM,61.0,43.0,52,30.08,7.0,NNW,3.5,-,N/A,,Overcast,330,2012-11-20 18:53:00
1:53 PM,61.0,44.1,54,30.07,7.0,North,4.6,-,N/A,,Overcast,360,2012-11-20 19:53:00
2:53 PM,61.0,44.1,54,30.08,7.0,North,4.6,-,N/A,,Mostly Cloudy,360,2012-11-20 20:53:00
3:53 PM,60.1,45.0,57,30.09,6.0,NNW,4.6,-,N/A,,Haze,340,2012-11-20 21:53:00
4:53 PM,57.9,45.0,62,30.11,9.0,North,6.9,-,N/A,,Overcast,10,2012-11-20 22:53:00
5:53 PM,55.0,45.0,69,30.13,8.0,North,5.8,-,N/A,,Mostly Cloudy,10,2012-11-20 23:53:00
6:53 PM,50.0,43.0,77,30.14,7.0,North,5.8,-,N/A,,Mostly Cloudy,350,2012-11-21 00:53:00
7:53 PM,53.1,44.1,71,30.15,7.0,NNW,5.8,-,N/A,,Overcast,340,2012-11-21 01:53:00
8:53 PM,53.1,45.0,74,30.17,7.0,Calm,Calm,-,N/A,,Overcast,0,2012-11-21 02:53:00
9:53 PM,52.0,45.0,77,30.17,7.0,Calm,Calm,-,N/A,,Overcast,0,2012-11-21 03:53:00
10:53 PM,50.0,43.0,77,30.17,6.0,North,3.5,-,N/A,,Haze,350,2012-11-21 04:53:00
11:53 PM,50.0,44.1,80,30.18,5.0,NNW,3.5,-,N/A,,Haze,330,2012-11-21 05:53:00